Zurück zum Katalog

CALSPHERE 4

A

AktivMilitärPO
NORAD 1520·PAYLOAD·🇺🇸 United States

Gestartet Aug 13, 1965 von Vandenberg Space Force Base

Loading…

Nächste Überflüge (nächste 24 Stunden)

TLE

AktuellSource: Space-Track

Epoche: Sep 14, 2026, 14:56 UTC

1 01520U 65065H   26257.62277631  .00000071  00000-0  11837-3 0  9997
2 01520  89.8903 121.5865 0068563 210.1031 180.2221 13.36291031974657

Verfolge CALSPHERE 4 in Echtzeit mit AllMySat

Download on the App Store